SHIYAN 6 03 (SY-6 03) (48157 NORAD) Tracking and Keplerian Element Data

This shows tracking and keplerian element data for the satellite.

Feedback or suggestion? Click here.




ElementValue
Catalog48157
NameSHIYAN 6 03 (SY-6 03)
Epoch Orbit521
Epoch Day136.96046631
Epoch Year2021
RAAN145.0255
Inclination99.506
Eccentricity0.0008699
Argument of Perigee160.1713
Mean Anonmoly199.9773
Mean Motion13.7085138
Decay Rate-3.7E-07
L11 48157U 21028A 21136.96046631 -.00000037 00000-0 86350-5 0 9994
L22 48157 99.5060 145.0255 0008699 160.1713 199.9773 13.70851380 5218

Live tracking and technical data element details for SHIYAN 6 03 (SY-6 03) (NORAD 48157). SHIYAN 6 03 (SY-6 03) can be tracked NOW for your location showing map with azimuth and elevation plus other details from your city location.

Track the satellite on the map from your city or location and see movement details for azimuth, elevation, latitude, longitude, range, height, and movement on the map or in text.







IsCatalogInMostPopularTable: catalog: 48157, numindb: 17
Update: records affected: 1



GetName: 48157 SHIYAN 6 03 (SY-6 03)

Hit Count: updated at: Mon, 17 May 2021 16:21:17 GMT